Погода в Александрополе

Украина / Днепропетровская область     48°35′55″N   36°33′10″E
темп.,
°C
ветер,
м/с
пор.,
м/с
влажн.,
%
обл.,
%
осадки,
мм/ч
давл.,
гПа
погр.,
м
17 сентября, пт
пт1700:00+12всв33471 0.0 101928
03:00+11всв225024 0.0 101910
06:00+10вюв11556 0.0 101810
09:00+17юв11385 0.0 1018257
12:00+21ююв12276 0.0 10161536
15:00+23ююз2223100 0.0 10151887
18:00+21юз112884 0.0 101411
21:00+17вюв1133100 0.0 101411
18 сентября, сб
сб1800:00+16ююз384495 0.0 1014160
03:00+14ю346374 0.0 101465
06:00+13ююв356179 0.0 101489
09:00+19ююв4638100 0.0 1013418
12:00+23ю672899 0.0 10121700
15:00+20ююз4943100 0.0 1012672
18:00+19ю3647100 0.0 1011248
21:00+18ю51058100 0.1 1011637
19 сентября, вс
вс1900:00+15юв41184100 3.6 1011585
03:00+15ю51093100 8.1 1010587
06:00+15ююв4985100 4.1 1009473
09:00+16ююз358582 4.1 1010453
12:00+21зюз3460100 0.0 10091169
15:00+23зюз3445100 0.0 10091510
18:00+21юз3449100 0.0 100885
21:00+17ююв367759 1.6 1009152
20 сентября, пн
пн2000:00+15ю37875 0.1 1009188
03:00+14з489490 0.1 1009270
06:00+12зсз4885100 0.0 1010314
09:00+13з4672100 0.0 1011375
12:00+16юз3555100 0.0 1010616
15:00+16зюз6855100 0.0 1010981
18:00+14зсз486487 0.0 1011591
21:00+11зсз476969 0.0 1012339
21 сентября, вт
вт2100:00+9зюз397838 0.0 1014373
03:00+9зюз388482 0.0 1014387
06:00+9з49845 0.0 1015415
09:00+10з7963100 0.0 10161244
12:00+12з5753100 0.0 10161162
15:00+14з674894 0.0 10161797
18:00+12сз465692 0.0 1016642
21:00+8зсз34726 0.0 101767